Weather History for KPRO - May, 2012

Change the Weather History Date:

Sunday, May 13, 2012

  Actual Average Record
Temperature  
Mean Temperature 63 °F -  
Max Temperature 78 °F 70 °F 91 °F (1956)
Min Temperature 48 °F 45 °F 32 °F (1953)
Degree Days  
Heating Degree Days 2    
Growing Degree Days 13 (Base 50)    
Moisture  
Dew Point 31 °F    
Average Humidity 36    
Maximum Humidity 70    
Minimum Humidity 11    
Precipitation  
Precipitation 0.00 in - - ()
Sea Level Pressure  
Sea Level Pressure 30.23 in    
Wind  
Wind Speed 3 mph (NW)    
Max Wind Speed 10 mph    
Max Gust Speed -    
Visibility 10 miles    
Events      
Averages and records for this station are not official NWS values.
T = Trace of Precipitation, MM = Missing Value Source: NWS Daily Summary

Daily Weather History Graph

Daily Weather History Graph

Search for Another Location

Airport or City:

Trip Planner

Search our weather history database for the weather conditions in past years. The results will help you decide how hot, cold, wet, or windy it might be!

Date:

Astronomy

May. 13, 2012 Rise Set
Actual Time 5:58 AM CDT 8:28 PM CDT
Civil Twilight 5:26 AM CDT 9:00 PM CDT
Nautical Twilight 4:47 AM CDT 9:39 PM CDT
Astronomical Twilight 4:03 AM CDT 10:24 PM CDT
Moon 2:10 AM CDT (5/13) 1:44 PM CDT (5/13)
Length of Visible Light 15h 33m
Length of Day
14h 30m
Last Quarter, 42% of the Moon is Illuminated
May 13
Last Quarter
May 20
New
May 28
First Quarter
Jun 4
Full
Jun 11
Last Quarter

Hourly Weather History & Observations

Time (CDT) Temp. Dew Point Humidity Pressure Visibility Wind Dir Wind Speed Gust Speed Precip Events Conditions
12:15 AM 58.1 °F 36.7 °F 45% 30.27 in 10.0 mi NNE 4.6 mph - N/A   Clear
12:35 AM 57.4 °F 37.0 °F 47% 30.27 in 10.0 mi NNE 4.6 mph - N/A   Clear
12:55 AM 56.3 °F 38.1 °F 51% 30.27 in 10.0 mi Calm Calm - N/A   Clear
1:15 AM 54.1 °F 38.7 °F 56% 30.27 in 10.0 mi Calm Calm - N/A   Clear
1:55 AM 54.9 °F 37.9 °F 53% 30.27 in 10.0 mi Calm Calm - N/A   Clear
2:15 AM 52.0 °F 40.6 °F 65% 30.28 in 10.0 mi North 3.5 mph - N/A   Clear
2:35 AM 51.3 °F 40.6 °F 67% 30.28 in 10.0 mi Calm Calm - N/A   Clear
2:55 AM 50.5 °F 41.0 °F 70% 30.28 in 10.0 mi Calm Calm - N/A   Clear
3:15 AM 51.3 °F 39.2 °F 63% 30.28 in 10.0 mi North 3.5 mph - N/A   Clear
3:35 AM 50.2 °F 39.6 °F 67% 30.28 in 10.0 mi North 3.5 mph - N/A   Clear
3:55 AM 50.4 °F 39.0 °F 65% 30.28 in 10.0 mi North 4.6 mph - N/A   Clear
4:15 AM 50.9 °F 38.3 °F 62% 30.28 in 10.0 mi North 3.5 mph - N/A   Clear
4:35 AM 50.0 °F 38.5 °F 65% 30.28 in 10.0 mi North 3.5 mph - N/A   Clear
4:55 AM 50.2 °F 38.7 °F 65% 30.28 in 10.0 mi NNE 3.5 mph - N/A   Clear
5:15 AM 49.8 °F 38.8 °F 66% 30.28 in 10.0 mi Calm Calm - N/A   Clear
5:35 AM 49.6 °F 37.9 °F 64% 30.28 in 10.0 mi Calm Calm - N/A   Clear
5:55 AM 48.7 °F 38.1 °F 67% 30.28 in 10.0 mi Calm Calm - N/A   Clear
6:15 AM 48.2 °F 38.7 °F 70% 30.28 in 10.0 mi Calm Calm - N/A   Clear
6:35 AM 48.9 °F 39.6 °F 70% 30.29 in 10.0 mi Calm Calm - N/A   Clear
7:15 AM 52.0 °F 39.2 °F 62% 30.29 in 10.0 mi Calm Calm - N/A   Clear
7:35 AM 53.8 °F 40.5 °F 61% 30.30 in 10.0 mi Calm Calm - N/A   Clear
7:55 AM 55.0 °F 39.2 °F 55% 30.30 in 10.0 mi Calm Calm - N/A   Clear
8:15 AM 57.2 °F 38.8 °F 50% 30.30 in 10.0 mi Calm Calm - N/A   Clear
8:35 AM 59.0 °F 37.9 °F 46% 30.30 in 10.0 mi Calm Calm - N/A   Clear
8:55 AM 61.3 °F 38.1 °F 42% 30.31 in 10.0 mi Calm Calm - N/A   Clear
9:15 AM 63.5 °F 37.6 °F 38% 30.30 in 10.0 mi East 4.6 mph - N/A   Clear
9:35 AM 65.1 °F 36.9 °F 35% 30.30 in 10.0 mi East 3.5 mph - N/A   Clear
9:55 AM 67.3 °F 34.9 °F 30% 30.29 in 10.0 mi ESE 3.5 mph - N/A   Clear
10:15 AM 69.3 °F 31.1 °F 24% 30.29 in 10.0 mi East 5.8 mph - N/A   Clear
10:35 AM 69.8 °F 28.0 °F 21% 30.28 in 10.0 mi East 5.8 mph - N/A   Clear
11:15 AM 70.3 °F 26.4 °F 19% 30.28 in 10.0 mi Calm Calm - N/A   Clear
11:35 AM 71.4 °F 25.9 °F 18% 30.28 in 10.0 mi Calm Calm - N/A   Clear
12:15 PM 72.1 °F 27.5 °F 19% 30.26 in 10.0 mi East 9.2 mph - N/A   Clear
12:35 PM 72.5 °F 27.7 °F 19% 30.26 in 10.0 mi Calm Calm - N/A   Clear
12:55 PM 73.2 °F 26.4 °F 18% 30.25 in 10.0 mi ENE 3.5 mph - N/A   Clear
1:15 PM 73.6 °F 26.6 °F 17% 30.24 in 10.0 mi SE 3.5 mph - N/A   Clear
1:35 PM 75.4 °F 23.9 °F 15% 30.24 in 10.0 mi East 6.9 mph - N/A   Clear
1:55 PM 76.5 °F 23.5 °F 14% 30.23 in 10.0 mi North 5.8 mph - N/A   Clear
2:15 PM 74.7 °F 22.1 °F 14% 30.22 in 10.0 mi Calm Calm - N/A   Clear
2:35 PM 77.2 °F 20.7 °F 12% 30.22 in 10.0 mi NNW 6.9 mph - N/A   Clear
2:55 PM 77.4 °F 21.7 °F 13% 30.21 in 10.0 mi NNW 9.2 mph - N/A   Clear
3:15 PM 76.5 °F 19.8 °F 12% 30.20 in 10.0 mi Calm Calm - N/A   Clear
3:35 PM 77.0 °F 21.9 °F 13% 30.19 in 10.0 mi WSW 4.6 mph - N/A   Clear
3:55 PM 77.9 °F 21.2 °F 12% 30.19 in 10.0 mi WNW 5.8 mph - N/A   Clear
4:15 PM 78.8 °F 20.8 °F 12% 30.17 in 10.0 mi West 8.1 mph - N/A   Clear
4:35 PM 78.4 °F 19.6 °F 11% 30.17 in 10.0 mi WNW 6.9 mph - N/A   Clear
4:55 PM 78.3 °F 19.4 °F 11% 30.17 in 10.0 mi NW 8.1 mph - N/A   Clear
5:15 PM 78.8 °F 19.8 °F 11% 30.17 in 10.0 mi West 5.8 mph - N/A   Clear
5:35 PM 77.9 °F 18.0 °F 11% 30.16 in 10.0 mi West 9.2 mph - N/A   Clear
5:55 PM 78.1 °F 18.7 °F 11% 30.16 in 10.0 mi NW 4.6 mph - N/A   Clear
6:15 PM 77.5 °F 17.8 °F 11% 30.15 in 10.0 mi North 3.5 mph - N/A   Clear
6:35 PM 77.2 °F 18.3 °F 11% 30.14 in 10.0 mi WNW 4.6 mph - N/A   Clear
6:55 PM 77.4 °F 19.8 °F 12% 30.14 in 10.0 mi North 3.5 mph - N/A   Clear
7:15 PM 77.0 °F 19.2 °F 11% 30.14 in 10.0 mi NW 6.9 mph - N/A   Clear
7:35 PM 76.1 °F 20.5 °F 12% 30.14 in 10.0 mi NW 3.5 mph - N/A   Clear
7:55 PM 75.2 °F 22.5 °F 14% 30.14 in 10.0 mi Calm Calm - N/A   Clear
8:15 PM 73.6 °F 27.7 °F 18% 30.14 in 10.0 mi WSW 3.5 mph - N/A   Clear
8:35 PM 70.2 °F 32.2 °F 25% 30.14 in 10.0 mi SSW 3.5 mph - N/A   Clear
8:55 PM 67.8 °F 32.4 °F 27% 30.14 in 10.0 mi SW 5.8 mph - N/A   Clear
9:15 PM 64.8 °F 35.1 °F 33% 30.14 in 10.0 mi SW 9.2 mph - N/A   Clear
9:35 PM 63.7 °F 34.9 °F 34% 30.14 in 10.0 mi SW 9.2 mph - N/A   Clear
9:55 PM 62.1 °F 36.0 °F 38% 30.14 in 7.0 mi SW 9.2 mph - N/A   Clear
10:15 PM 61.9 °F 36.7 °F 39% 30.15 in 10.0 mi SW 9.2 mph - N/A   Clear
10:35 PM 61.3 °F 36.9 °F 40% 30.15 in 10.0 mi SW 10.4 mph - N/A   Clear
10:55 PM 60.1 °F 38.1 °F 44% 30.14 in 10.0 mi SW 10.4 mph - N/A   Clear
11:15 PM 60.3 °F 37.4 °F 43% 30.14 in 10.0 mi SW 10.4 mph - N/A   Clear
11:35 PM 59.0 °F 37.9 °F 46% 30.14 in 10.0 mi WSW 8.1 mph - N/A   Clear
11:55 PM 58.1 °F 39.4 °F 50% 30.14 in 10.0 mi WSW 8.1 mph - N/A   Clear